TimeEST,TemperatureF,Dew PointF,Humidity,Sea Level PressureIn,VisibilityMPH,Wind Direction,Wind SpeedMPH,Gust SpeedMPH,PrecipitationIn,Events,Conditions,WindDirDegrees,DateUTC
12:17 AM,39.2,35.6,87,29.96,10.0,North,11.5,23.0,0.00,Rain,Light Rain,350,2012-12-20 05:17:00
12:48 AM,39.2,35.6,87,29.97,10.0,NNW,11.5,19.6,0.01,,Mostly Cloudy,340,2012-12-20 05:48:00
12:56 AM,39.0,36.0,89,29.98,10.0,North,15.0,24.2,0.01,,Mostly Cloudy,350,2012-12-20 05:56:00
1:56 AM,39.9,35.1,83,30.01,10.0,NNW,12.7,20.7,0.00,Rain,Light Rain,330,2012-12-20 06:56:00
2:31 AM,39.2,33.8,81,30.01,10.0,North,11.5,20.7,0.00,,Overcast,350,2012-12-20 07:31:00
2:40 AM,39.2,33.8,81,30.02,10.0,NNW,12.7,20.7,0.00,,Overcast,340,2012-12-20 07:40:00
2:56 AM,39.9,34.0,79,30.02,10.0,North,11.5,24.2,0.00,Rain,Light Rain,350,2012-12-20 07:56:00
3:56 AM,39.0,35.1,86,30.04,10.0,North,13.8,19.6,0.01,Rain,Light Rain,350,2012-12-20 08:56:00
4:56 AM,39.0,35.1,86,30.06,10.0,North,11.5,16.1,0.00,,Overcast,350,2012-12-20 09:56:00
5:56 AM,39.0,36.0,89,30.08,10.0,North,8.1,16.1,0.02,,Overcast,360,2012-12-20 10:56:00
6:26 AM,39.2,35.6,87,30.09,10.0,North,9.2,-,N/A,,Mostly Cloudy,360,2012-12-20 11:26:00
6:34 AM,39.2,35.6,87,30.09,10.0,North,9.2,-,N/A,,Mostly Cloudy,360,2012-12-20 11:34:00
6:56 AM,39.0,35.1,86,30.10,10.0,North,10.4,-,N/A,,Mostly Cloudy,10,2012-12-20 11:56:00
7:56 AM,41.0,34.0,76,30.13,10.0,NNE,12.7,-,0.00,,Mostly Cloudy,30,2012-12-20 12:56:00
8:56 AM,42.1,35.1,76,30.15,10.0,NNE,11.5,-,N/A,,Mostly Cloudy,30,2012-12-20 13:56:00
9:33 AM,42.8,33.8,70,30.16,10.0,NNE,6.9,17.3,0.00,,Overcast,30,2012-12-20 14:33:00
9:45 AM,42.8,35.6,76,30.16,10.0,NNE,12.7,20.7,0.00,,Overcast,30,2012-12-20 14:45:00
9:56 AM,42.1,34.0,73,30.16,10.0,NNE,12.7,19.6,0.00,,Mostly Cloudy,20,2012-12-20 14:56:00
10:15 AM,42.8,35.6,76,30.15,10.0,North,13.8,-,N/A,,Scattered Clouds,10,2012-12-20 15:15:00
10:45 AM,42.8,35.6,76,30.16,10.0,NNE,13.8,20.7,N/A,,Mostly Cloudy,20,2012-12-20 15:45:00
10:56 AM,42.1,35.1,76,30.16,10.0,NNE,11.5,-,N/A,,Mostly Cloudy,30,2012-12-20 15:56:00
11:06 AM,42.8,33.8,70,30.15,10.0,NNE,12.7,19.6,N/A,,Mostly Cloudy,20,2012-12-20 16:06:00
11:30 AM,42.8,35.6,76,30.15,10.0,NNE,9.2,-,0.00,,Mostly Cloudy,20,2012-12-20 16:30:00
11:56 AM,43.0,34.0,71,30.14,10.0,North,13.8,19.6,0.00,,Partly Cloudy,360,2012-12-20 16:56:00
12:56 PM,42.1,33.1,70,30.13,10.0,NNE,13.8,20.7,N/A,,Scattered Clouds,20,2012-12-20 17:56:00
1:56 PM,43.0,33.1,68,30.13,10.0,North,12.7,-,N/A,,Scattered Clouds,10,2012-12-20 18:56:00
2:56 PM,42.1,33.1,70,30.12,10.0,North,6.9,-,N/A,,Clear,10,2012-12-20 19:56:00
3:28 PM,41.0,32.0,70,30.13,10.0,NNE,8.1,-,N/A,,Mostly Cloudy,30,2012-12-20 20:28:00
3:56 PM,39.9,32.0,73,30.12,10.0,NE,5.8,-,N/A,,Overcast,40,2012-12-20 20:56:00
4:23 PM,39.2,30.2,70,30.13,10.0,NNE,3.5,-,N/A,,Mostly Cloudy,30,2012-12-20 21:23:00
4:56 PM,37.0,30.9,79,30.13,10.0,ENE,3.5,-,N/A,,Mostly Cloudy,60,2012-12-20 21:56:00
5:56 PM,37.0,32.0,82,30.12,10.0,ENE,3.5,-,N/A,,Mostly Cloudy,70,2012-12-20 22:56:00
6:47 PM,37.4,33.8,87,30.11,10.0,Calm,Calm,-,N/A,,Mostly Cloudy,0,2012-12-20 23:47:00
6:56 PM,37.0,34.0,89,30.11,10.0,ENE,4.6,-,N/A,,Overcast,60,2012-12-20 23:56:00
7:17 PM,37.4,33.8,87,30.11,10.0,NE,3.5,-,N/A,,Scattered Clouds,40,2012-12-21 00:17:00
7:56 PM,36.0,34.0,93,30.12,10.0,Calm,Calm,-,N/A,,Mostly Cloudy,0,2012-12-21 00:56:00
8:05 PM,35.6,33.8,93,30.10,10.0,ENE,3.5,-,N/A,,Mostly Cloudy,70,2012-12-21 01:05:00
8:47 PM,35.6,33.8,93,30.08,10.0,ENE,3.5,-,N/A,,Scattered Clouds,70,2012-12-21 01:47:00
8:56 PM,37.0,34.0,89,30.08,10.0,East,4.6,-,N/A,,Scattered Clouds,80,2012-12-21 01:56:00
9:03 PM,37.4,33.8,87,30.08,10.0,East,3.5,-,N/A,,Mostly Cloudy,80,2012-12-21 02:03:00
9:26 PM,37.4,35.6,93,30.07,10.0,ENE,3.5,-,N/A,,Scattered Clouds,70,2012-12-21 02:26:00
9:37 PM,37.4,35.6,93,30.06,10.0,NE,3.5,-,N/A,,Mostly Cloudy,50,2012-12-21 02:37:00
9:56 PM,39.0,36.0,89,30.07,10.0,Calm,Calm,-,N/A,,Overcast,0,2012-12-21 02:56:00
10:56 PM,37.9,36.0,93,30.06,10.0,Calm,Calm,-,N/A,,Overcast,0,2012-12-21 03:56:00
11:56 PM,39.9,39.0,97,30.02,10.0,Calm,Calm,-,0.00,,Overcast,0,2012-12-21 04:56:00